Location: Ch�tillon
(48.8024°N, 2.2935°E)
Time: 08:52:24
(UTC+00:00)

LO-87 - Pass Details

Date: 28 June 2022
Orbit: 451 x 466 km, 97.4° (Epoch: 09 August)

Event Time Altitude Azimuth Distance (km) Brightness Sun altitude
Exits shadow 21:53:44 - 94° (E) 1,844 ? -13.1°
Reaches altitude 10° 21:55:04 10° 75° (ENE) 1,613 ? -13.2°
Maximum altitude 21:55:57 11° 60° (ENE) 1,567 ? -13.3°
Drops below altitude 10° 21:56:50 10° 45° (NE) 1,619 ? -13.3°
Sets 22:00:20 0° 7° (N) 2,508 ? -13.6°
